Weather History for Millville, NJ

Change the Weather History Date:

Monday, August 19, 2013

  Actual Average Record
Temperature  
Mean Temperature 68 °F -  
Max Temperature 77 °F 82 °F 96 °F (2002)
Min Temperature 62 °F 64 °F 50 °F (1961)
Cooling Degree Days 4    
Growing Degree Days 18 (Base 50)    
Moisture  
Dew Point 63 °F    
Average Humidity 82    
Maximum Humidity 100    
Minimum Humidity 66    
Precipitation  
Precipitation 0.00 in - - ()
Sea Level Pressure  
Sea Level Pressure 30.12 in    
Wind  
Wind Speed 2 mph (WSW)    
Max Wind Speed 9 mph    
Max Gust Speed -    
Visibility 10 miles    
Events      
Averages and records for this station are not official NWS values.
T = Trace of Precipitation, MM = Missing Value Source: NWS Daily Summary

Daily Weather History Graph

Daily Weather History Graph

Search for Another Location

Airport:

Trip Planner

Search our weather history database for the weather conditions in past years. The results will help you decide how hot, cold, wet, or windy it might be!

Date:

Astronomy

Aug. 19, 2013 Rise Set
Actual Time 6:16 AM EDT 7:50 PM EDT
Civil Twilight 5:48 AM EDT 8:18 PM EDT
Nautical Twilight 5:14 AM EDT 8:52 PM EDT
Astronomical Twilight 4:38 AM EDT 9:28 PM EDT
Moon 6:39 PM EDT 4:33 AM EDT
Length of Visible Light 14h 29m
Length of Day
13h 33m
Waxing Gibbous, 97% of the Moon is Illuminated
Aug 19
Waxing Gibbous
Aug 20
Full
Aug 28
Last Quarter
Sep 5
New
Sep 12
First Quarter

Hourly Weather History & Observations

Time (EDT) Temp. Dew Point Humidity Pressure Visibility Wind Dir Wind Speed Gust Speed Precip Events Conditions
12:54 AM 63.0 °F 61.0 °F 93% 30.17 in - Calm Calm - N/A   Overcast
1:54 AM 62.1 °F 60.1 °F 93% 30.15 in - Calm Calm - N/A   Scattered Clouds
2:54 AM 62.1 °F 61.0 °F 96% 30.15 in - Calm Calm - N/A   Overcast
3:54 AM 62.1 °F 61.0 °F 96% 30.14 in - Calm Calm - N/A   Overcast
4:54 AM 62.1 °F 62.1 °F 100% 30.14 in - Calm Calm - N/A   Overcast
5:54 AM 63.0 °F 62.1 °F 97% 30.15 in - Calm Calm - N/A   Overcast
6:54 AM 64.0 °F 63.0 °F 96% 30.15 in - Calm Calm - N/A   Overcast
7:54 AM 66.0 °F 63.0 °F 90% 30.15 in - Calm Calm - N/A   Overcast
8:54 AM 69.1 °F 61.0 °F 75% 30.16 in - West 3.5 mph - N/A   Clear
9:54 AM 71.1 °F 62.1 °F 73% 30.14 in - Calm Calm - N/A   Clear
10:54 AM 73.0 °F 62.1 °F 68% 30.14 in - WSW 6.9 mph - N/A   Clear
11:54 AM 73.0 °F 61.0 °F 66% 30.13 in - West 5.8 mph - N/A   Clear
12:54 PM 73.9 °F 62.1 °F 66% 30.12 in - WSW 8.1 mph - N/A   Clear
1:54 PM 75.0 °F 63.0 °F 66% 30.11 in 10.0 mi WSW 5.8 mph - N/A   Clear
2:54 PM 73.9 °F 64.0 °F 71% 30.10 in 10.0 mi SSW 4.6 mph - N/A   Partly Cloudy
3:22 PM 75.2 °F 64.4 °F 69% 30.11 in 10.0 mi WSW 9.2 mph - N/A   Mostly Cloudy
3:54 PM 75.0 °F 64.9 °F 71% 30.09 in 10.0 mi Variable 4.6 mph - N/A   Mostly Cloudy
4:45 PM 75.2 °F 64.4 °F 69% 30.09 in 10.0 mi Variable 4.6 mph - N/A   Scattered Clouds
4:54 PM 75.0 °F 66.0 °F 73% 30.08 in 10.0 mi SW 3.5 mph - N/A   Scattered Clouds
5:54 PM 75.0 °F 64.9 °F 71% 30.08 in 10.0 mi WSW 4.6 mph - N/A   Mostly Cloudy
6:54 PM 73.0 °F 66.0 °F 79% 30.09 in 10.0 mi SW 3.5 mph - N/A   Overcast
7:54 PM 72.0 °F 66.0 °F 81% 30.08 in 10.0 mi Calm Calm - N/A   Overcast
8:54 PM 70.0 °F 66.0 °F 87% 30.08 in 10.0 mi Calm Calm - N/A   Mostly Cloudy
9:54 PM 66.0 °F 64.9 °F 96% 30.10 in 9.0 mi Calm Calm - N/A   Clear
10:54 PM 66.9 °F 64.9 °F 93% 30.10 in 10.0 mi Calm Calm - N/A   Clear
11:54 PM 64.9 °F 64.0 °F 97% 30.11 in 10.0 mi Calm Calm - N/A   Clear